Regional Weather Roundup
Issued by NWS

Home | Current Version | Previous Version | Text Only | Print | Product List | Glossary Off
Versions: 1 2 3 4 5 6 7 8 9 10 11 12 13 14 15 16 17 18 19 20 21 22 23 24 25 26 27 28 29 30 31 32 33 34 35 36 37 38 39 40 41 42 43 44 45 46 47 48 49 50

000
ASUS43 KLOT 220608
RWRIL

ILLINOIS REGIONAL WEATHER ROUNDUP
NATIONAL WEATHER SERVICE CHICAGO/ROMEOVILLE IL
1200 AM CST MON JAN 22 2018

NOTE: "FAIR" INDICATES FEW OR NO CLOUDS BELOW 12,000 FEET WITH NO
SIGNIFICANT WEATHER AND/OR OBSTRUCTIONS TO VISIBILITY.

* THESE STATIONS ARE NOT UNDER NWS QUALITY CONTROL. THEY ALSO MAY NOT
  REPORT WEATHER SUCH AS PRECIPITATION OR FOG.

ILZ001-002-007-009-015-016-024-220700-
NORTHWEST ILLINOIS

CITY           SKY/WX    TMP DP  RH WIND       PRES   REMARKS
MOLINE         FOG       47  46  97 E10       29.68F VSB 1/4
6HR MIN TEMP:  43; 6HR MAX TEMP:  47;

STERLING*      LGT RAIN  42  41  96 E9        29.74F VSB 1/4
SAVANNA*       LGT RAIN  40  40  99 N8        29.74F
$$

ILZ003-004-008-010-011-017-018-220700-
NORTH CENTRAL ILLINOIS

CITY           SKY/WX    TMP DP  RH WIND       PRES   REMARKS
ROCKFORD       DRZL/FOG  41  40  96 E9        29.80F VSB 1/4
6HR MIN TEMP:  39; 6HR MAX TEMP:  41; 6HR PCP:  0.01;

FREEPORT*      LGT RAIN  37  37  99 NE10      29.79F VSB 1/2 WCI  30
ROCHELLE*      LGT RAIN  43  43 100 SE10      29.77F VSB 1/4
DE KALB*       RAIN      44  43  99 SE8       29.79F VSB 1/4
PERU*          FOG       46  46  98 SE10      29.77F VSB 1/2
$$

ILZ005-006-012>014-019>023-220700-
NORTHEAST ILLINOIS

CITY           SKY/WX    TMP DP  RH WIND       PRES   REMARKS
CHICAGO-OHARE  FOG       43  43 100 SE3       29.81F VSB 1/8
6HR MIN TEMP:  41; 6HR MAX TEMP:  44; 6HR PCP: TRACE;

CHICAGO-MIDWAY FOG       48  48 100 S7        29.83F VSB 1/2
6HR MIN TEMP:  42; 6HR MAX TEMP:  48; 6HR PCP:  0.01;

AURORA         FOG       44  44 100 SE9       29.80F VSB 1/4
6HR MIN TEMP:  41; 6HR MAX TEMP:  45; 6HR PCP: TRACE;

LANSING*       FOG       46  46 100 S7        29.83F VSB 1
JOLIET*        FOG       46  46 100 SE5       29.81F VSB 1/4
WAUKEGAN       FOG       37  37 100 NE6       29.83F VSB 1/4 WCI  32
6HR MIN TEMP:  35; 6HR MAX TEMP:  38; 6HR PCP: TRACE;

DUPAGE AIRPORT FOG       45  45 100 SE7       29.80F VSB 1/4
6HR MIN TEMP:  41; 6HR MAX TEMP:  46;

KANKAKEE*      CLOUDY   N/A N/A N/A SE9       29.82F FOG
WHEELING       FOG       39  39 100 CALM      29.83F VSB 1/4
6HR MIN TEMP:  39; 6HR MAX TEMP:  41;

MORRIS*        FOG       46  46  99 SE6       29.80F VSB 1/4
ROMEOVILLE*    SNOW      45  45 100 S7        29.81F VSB 1/4
NORTHERLY ISL    N/A     38  37  97 SE3         N/A
$$

LMZ740>746-220700-
SOUTHERN LAKE MICHIGAN

STATION/POSITION SKY/WX   TEMP    WIND        PRES    VSBY  WAVE
                          AIR SEA DIR/SP/G                  HT/PER
                          (F)     (DEG/KT/KT) (MB)    (MI)  (FT/S)
HARRISON CRIB              43     150/ 12/ 13   N/A
BURNHAM HARBOR             40     160/  2/  3   N/A
CALUMET HARBOR             46     140/  4/  6 1009.7F
BURNS HARBOR               47     190/  8/ 11 1011.5F
MICHIGAN CITY              46     130/  6/  8   N/A
$$

ILZ025>027-034>036-040-047-049-050-058-095>099-220700-
WEST-CENTRAL ILLINOIS

CITY           SKY/WX    TMP DP  RH WIND       PRES   REMARKS
QUINCY         RAIN      54  54 100 SW12      29.71R FOG
GALESBURG*     FOG       51  51 100 SE9       29.71F VSB 1/2
MACOMB*        LGT RAIN  51  51  99 S8        29.73F
JACKSONVILLE*  CLOUDY    55  53  92 S10       29.72F
PITTSFIELD*    TSTM      56  55  96 S7        29.72F
$$

ILZ028>032-037-038-041>044-048-051>054-059>061-220700-
CENTRAL ILLINOIS

CITY           SKY/WX    TMP DP  RH WIND       PRES   REMARKS
PONTIAC        CLOUDY    48  47  98 SE10      29.80F FOG
BLOOMINGTON    FOG       48  47  96 S10       29.79F VSB 1/2
DECATUR        CLOUDY    52  52 100 S14       29.79F
PEORIA         CLOUDY    52  52 100 S8        29.75F
6HR MIN TEMP:  51; 6HR MAX TEMP:  54;

LACON*         CLOUDY    50  50 100 S8        29.75F FOG
LINCOLN*       CLOUDY    54  54 100 S15       29.77F FOG
SPRINGFIELD    CLOUDY    56  55  97 S16       29.75F
6HR MIN TEMP:  54; 6HR MAX TEMP:  56; 6HR PCP: TRACE;

TAYLORVILLE    CLOUDY    53  52  97 S15G21    29.77F
6HR MIN TEMP:  52; 6HR MAX TEMP:  54; 6HR PCP:  0.08;

$$

ILZ033-039-045-046-055>057-062-063-220700-
EAST-CENTRAL ILLINOIS

CITY           SKY/WX    TMP DP  RH WIND       PRES   REMARKS
CHAMPAIGN      CLOUDY    49  49 100 S17       29.81F FOG
DANVILLE*      LGT RAIN  50  50 100 S9        29.82F
RANTOUL*       DRIZZLE   48  48  99 S9        29.82F
MATTOON        LGT RAIN  50  49  96 S12       29.83F
PARIS*         CLOUDY    50  49  98 S16G22    29.85F
$$

ILZ079-100>102-220700-
SOUTHWEST ILLINOIS

CITY           SKY/WX    TMP DP  RH WIND       PRES   REMARKS
ALTON          CLOUDY    54  54 100 SE8       29.75F
BELLEVILLE     CLOUDY    56  53  89 S14       29.75F
CAHOKIA*       CLOUDY    57  54  89 SE12G22   29.74F
SPARTA*        CLOUDY    56  54  92 S10       29.80F
$$

ILZ064>066-069>071-074>076-080>082-084>086-088>090-092>094-220700-
SOUTH-CENTRAL ILLINOIS

CITY           SKY/WX    TMP DP  RH WIND       PRES   REMARKS
CARBONDALE     CLOUDY    56  49  77 S16G23    29.82F
6HR MIN TEMP:  50; 6HR MAX TEMP:  56; 6HR PCP: TRACE;

CAIRO*         FAIR      58  48  69 SE12G18   29.85F
EFFINGHAM*     CLOUDY    52  52 100 SE9       29.85F
MARION         MOCLDY    57  48  72 S15       29.84F
MT. VERNON     MOCLDY    53  50  89 S7        29.83F
CENTRALIA*     CLOUDY    54  52  92 SE9       29.80F
SALEM*         CLOUDY    56  51  82 SE7       29.82F
METROPOLIS*    CLOUDY    60  47  63 S10G20    29.88F
$$

ILZ067-068-072-073-078-083-087-091-220700-
SOUTHEAST ILLINOIS

CITY           SKY/WX    TMP DP  RH WIND       PRES   REMARKS
LAWRENCEVILLE  MOCLDY    49  45  86 S9        29.89F
FLORA*         CLOUDY    50  49  95 SE8       29.85F
FAIRFIELD*     MOCLDY    52  49  92 SE6       29.84F
HARRISBURG*    MOCLDY    57  49  73 S17G23    29.87F
ROBINSON*      CLOUDY    51  47  88 S9        29.88F
CARMI*         MOCLDY    45  44  95 S9        29.87F
$$

ABBREVIATIONS USED IN REMARKS
   TC - TEMPERATURE IN CELSIUS
  WCI - WIND CHILL INDEX
   HX - HEAT INDEX
  VSB - VISIBILITY
$$





USA.gov is the U.S. government's official web portal to all federal, state and local government web resources and services.